Tracking 25934 objects as of 10-Aug-2022
HD Live streaming from Space Station
objects crossing your sky now

IRIDIUM 33 DEB

Track IRIDIUM 33 DEB now!
10-day predictions


NORAD ID: 33867
Int'l Code: 1997-051AL
Perigee: 686.5 km
Apogee: 719.9 km
Inclination: 86.4 °
Period: 98.7 minutes
Semi major axis: 7074 km
RCS: 0.1307 m2 (medium)
Launch date: September 14, 1997
Source: United States (US)
Launch site: TYURATAM MISSILE AND SPACE COMPLEX (TTMTR)

Note: This is SATELLITE DEBRIS
aabbcc
Your satellite tracking list
Your tracking list is empty




NASA's NSSDC Master Catalog

Two Line Element Set (TLE):
1 33867U 97051AL  22222.30356991  .00003004  00000-0  63171-3 0  9993
2 33867  86.4219 179.4299 0023602 340.7540  19.2775 14.59109472714438
Source of the keplerian elements: AFSPC